Weather History for Jasper, TX

Change the Weather History Date:

Thursday, September 12, 2013

  Actual Average (KLFK) Record (KLFK)
Temperature  
Mean Temperature 82 °F 79 °F  
Max Temperature 96 °F 90 °F 103 °F (2011)
Min Temperature 69 °F 67 °F 50 °F (1940)
Degree Days  
Heating Degree Days 0 0  
Month to date heating degree days 0  
Since 1 July heating degree days 0  
Cooling Degree Days 18 14  
Month to date cooling degree days 180  
Year to date cooling degree days 2203  
Growing Degree Days 32 (Base 50)    
Moisture  
Dew Point 67 °F    
Average Humidity 65    
Maximum Humidity 96    
Minimum Humidity 28    
Precipitation  
Precipitation 0.00 in 0.15 in 4.96 in (1961)
Month to date precipitation 1.71  
Year to date precipitation 32.30  
Snow  
Snow 0.00 in - - ()
Month to date snowfall  
Since 1 July snowfall  
Since 1 September snowfall  
Snow Depth -    
Sea Level Pressure  
Sea Level Pressure 30.02 in    
Wind  
Wind Speed 0 mph (East)    
Max Wind Speed 6 mph    
Max Gust Speed -    
Visibility 9 miles    
Events      
T = Trace of Precipitation, MM = Missing Value Source: NWS Daily Summary

Daily Weather History Graph

Daily Weather History Graph

Search for Another Location

Airport:

Trip Planner

Search our weather history database for the weather conditions in past years. The results will help you decide how hot, cold, wet, or windy it might be!

Date:

Astronomy

Sep. 12, 2013 Rise Set
Actual Time 6:58 AM CDT 7:25 PM CDT
Civil Twilight 6:34 AM CDT 7:49 PM CDT
Nautical Twilight 6:06 AM CDT 8:17 PM CDT
Astronomical Twilight 5:37 AM CDT 8:46 PM CDT
Moon 2:01 PM CDT (9/12) No Moon Set
Length of Visible Light 13h 14m
Length of Day
12h 26m
Waxing Crescent, 50% of the Moon is Illuminated
Sep 12
Waxing Crescent
Sep 12
First Quarter
Sep 19
Full
Sep 26
Last Quarter
Oct 4
New

Hourly Weather History & Observations

Time (CDT) Temp. Heat Index Dew Point Humidity Pressure Visibility Wind Dir Wind Speed Gust Speed Precip Events Conditions
12:15 AM 75.2 °F - 70.0 °F 84% 30.07 in 10.0 mi Calm Calm - N/A   Clear
12:35 AM 75.0 °F - 70.0 °F 84% 30.07 in 10.0 mi Calm Calm - N/A   Clear
12:55 AM 74.5 °F - 70.2 °F 86% 30.07 in 10.0 mi Calm Calm - N/A   Clear
1:15 AM 73.8 °F - 70.0 °F 88% 30.06 in 10.0 mi Calm Calm - N/A   Clear
1:35 AM 73.6 °F - 69.8 °F 88% 30.06 in 10.0 mi Calm Calm - N/A   Clear
1:55 AM 73.0 °F - 69.8 °F 90% 30.07 in 10.0 mi Calm Calm - N/A   Clear
2:15 AM 72.9 °F - 69.6 °F 90% 30.07 in 10.0 mi Calm Calm - N/A   Clear
2:35 AM 72.5 °F - 69.8 °F 91% 30.06 in 10.0 mi Calm Calm - N/A   Clear
2:55 AM 72.3 °F - 69.6 °F 91% 30.06 in 10.0 mi Calm Calm - N/A   Clear
3:15 AM 71.8 °F - 69.3 °F 92% 30.06 in 10.0 mi Calm Calm - N/A   Clear
3:35 AM 71.6 °F - 69.1 °F 92% 30.06 in 10.0 mi Calm Calm - N/A   Clear
3:55 AM 71.2 °F - 69.1 °F 93% 30.06 in 10.0 mi Calm Calm - N/A   Clear
4:15 AM 70.9 °F - 68.9 °F 93% 30.06 in 5.0 mi Calm Calm - N/A   Clear
4:35 AM 70.5 °F - 68.7 °F 94% 30.06 in 7.0 mi Calm Calm - N/A   Clear
4:55 AM 70.7 °F - 68.7 °F 93% 30.06 in 4.0 mi Calm Calm - N/A   Clear
5:15 AM 70.5 °F - 68.7 °F 94% 30.06 in 5.0 mi Calm Calm - N/A   Clear
5:35 AM 70.3 °F - 68.5 °F 94% 30.06 in 7.0 mi Calm Calm - N/A   Clear
5:55 AM 70.0 °F - 68.4 °F 95% 30.06 in 5.0 mi Calm Calm - N/A   Clear
6:15 AM 70.0 °F - 68.4 °F 95% 30.06 in 7.0 mi Calm Calm - N/A   Clear
6:35 AM 69.4 °F - 67.8 °F 95% 30.06 in 5.0 mi Calm Calm - N/A   Clear
6:55 AM 69.3 °F - 67.8 °F 95% 30.07 in 5.0 mi Calm Calm - N/A   Clear
7:15 AM 69.6 °F - 68.4 °F 96% 30.07 in 4.0 mi Calm Calm - N/A   Clear
7:35 AM 69.6 °F - 68.2 °F 95% 30.08 in 5.0 mi Calm Calm - N/A   Clear
7:55 AM 70.9 °F - 69.4 °F 95% 30.08 in 7.0 mi Calm Calm - N/A   Clear
8:15 AM 72.5 °F - 70.3 °F 93% 30.09 in 10.0 mi Calm Calm - N/A   Clear
8:35 AM 76.6 °F - 72.3 °F 86% 30.08 in 10.0 mi Calm Calm - N/A   Clear
8:55 AM 79.9 °F - 73.2 °F 80% 30.09 in 10.0 mi Calm Calm - N/A   Clear
9:15 AM 82.6 °F 88.6 °F 73.6 °F 74% 30.09 in 10.0 mi Calm Calm - N/A   Clear
9:35 AM 84.2 °F 90.6 °F 73.2 °F 69% 30.09 in 10.0 mi Calm Calm - N/A   Clear
9:55 AM 85.6 °F 92.2 °F 72.5 °F 65% 30.09 in 10.0 mi Calm Calm - N/A   Clear
10:15 AM 86.5 °F 92.5 °F 71.8 °F 61% 30.09 in 10.0 mi Calm Calm - N/A   Clear
10:35 AM 88.0 °F 93.4 °F 70.7 °F 56% 30.09 in 10.0 mi East 3.5 mph - N/A   Clear
10:55 AM 88.7 °F 93.9 °F 70.3 °F 54% 30.09 in 10.0 mi SE 4.6 mph - N/A   Scattered Clouds
11:15 AM 89.1 °F 94.1 °F 70.0 °F 53% 30.09 in 10.0 mi Calm Calm - N/A   Scattered Clouds
11:35 AM 90.3 °F 94.7 °F 68.7 °F 49% 30.08 in 10.0 mi Calm Calm - N/A   Scattered Clouds
11:55 AM 91.0 °F 94.3 °F 67.3 °F 45% 30.07 in 10.0 mi Calm Calm - N/A   Scattered Clouds
12:15 PM 92.3 °F 95.6 °F 66.7 °F 43% 30.07 in 10.0 mi Calm Calm - N/A   Clear
12:35 PM 93.0 °F 96.4 °F 66.9 °F 42% 30.07 in 10.0 mi ENE 4.6 mph - N/A   Scattered Clouds
12:55 PM 92.7 °F 95.8 °F 66.2 °F 42% 30.06 in 10.0 mi Calm Calm - N/A   Scattered Clouds
1:15 PM 92.3 °F 94.7 °F 65.7 °F 41% 30.05 in 10.0 mi Calm Calm - N/A   Scattered Clouds
1:35 PM 93.4 °F 95.2 °F 64.4 °F 38% 30.04 in 10.0 mi Calm Calm - N/A   Scattered Clouds
1:55 PM 93.7 °F 94.9 °F 63.1 °F 36% 30.03 in 10.0 mi Calm Calm - N/A   Clear
2:15 PM 94.1 °F 95.5 °F 63.3 °F 36% 30.01 in 10.0 mi NNE 5.8 mph - N/A   Scattered Clouds
2:35 PM 94.1 °F 95.0 °F 63.0 °F 35% 30.01 in 10.0 mi Calm Calm - N/A   Scattered Clouds
2:55 PM 94.5 °F 94.8 °F 61.5 °F 33% 29.99 in 10.0 mi ENE 3.5 mph - N/A   Scattered Clouds
3:15 PM 95.7 °F 96.3 °F 61.3 °F 32% 29.98 in 10.0 mi Calm Calm - N/A   Scattered Clouds
3:35 PM 96.1 °F 96.0 °F 60.1 °F 30% 29.97 in 10.0 mi Calm Calm - N/A   Clear
3:55 PM 96.3 °F 96.3 °F 60.4 °F 30% 29.96 in 10.0 mi ESE 3.5 mph - N/A   Clear
4:15 PM 96.6 °F 96.8 °F 60.1 °F 30% 29.96 in 10.0 mi Calm Calm - N/A   Clear
4:35 PM 96.4 °F 96.1 °F 59.7 °F 29% 29.95 in 10.0 mi ESE 3.5 mph - N/A   Clear
4:55 PM 96.6 °F 96.0 °F 58.5 °F 28% 29.95 in 10.0 mi East 4.6 mph - N/A   Clear
5:15 PM 96.4 °F 95.7 °F 58.5 °F 28% 29.94 in 10.0 mi Calm Calm - N/A   Clear
5:35 PM 95.9 °F 95.3 °F 59.0 °F 29% 29.94 in 10.0 mi Calm Calm - N/A   Clear
5:55 PM 95.7 °F 95.1 °F 58.8 °F 29% 29.93 in 10.0 mi Calm Calm - N/A   Clear
6:15 PM 95.2 °F 94.7 °F 59.0 °F 30% 29.93 in 10.0 mi Calm Calm - N/A   Clear
6:35 PM 94.5 °F 93.6 °F 58.6 °F 30% 29.93 in 10.0 mi Calm Calm - N/A   Clear
6:55 PM 93.4 °F 92.8 °F 59.0 °F 32% 29.93 in 10.0 mi Calm Calm - N/A   Clear
7:15 PM 91.6 °F 91.6 °F 61.2 °F 36% 29.94 in 10.0 mi Calm Calm - N/A   Clear
7:35 PM 87.4 °F 88.8 °F 64.6 °F 46% 29.95 in 10.0 mi Calm Calm - N/A   Clear
7:55 PM 84.7 °F 86.6 °F 65.1 °F 52% 29.95 in 10.0 mi Calm Calm - N/A   Clear
8:15 PM 82.6 °F 84.9 °F 66.2 °F 58% 29.96 in 10.0 mi Calm Calm - N/A   Clear
8:35 PM 80.6 °F 82.8 °F 66.4 °F 62% 29.96 in 10.0 mi Calm Calm - N/A   Clear
8:55 PM 79.3 °F - 66.6 °F 65% 29.96 in 10.0 mi Calm Calm - N/A   Clear
9:15 PM 78.3 °F - 66.6 °F 67% 29.97 in 10.0 mi Calm Calm - N/A   Clear
9:35 PM 77.2 °F - 66.4 °F 69% 29.97 in 10.0 mi Calm Calm - N/A   Clear
9:55 PM 76.6 °F - 66.9 °F 72% 29.97 in 10.0 mi Calm Calm - N/A   Clear
10:15 PM 76.1 °F - 67.1 °F 74% 29.98 in 10.0 mi Calm Calm - N/A   Clear
10:35 PM 76.1 °F - 66.9 °F 73% 29.98 in 10.0 mi Calm Calm - N/A   Clear
10:55 PM 75.0 °F - 67.3 °F 77% 29.98 in 10.0 mi Calm Calm - N/A   Clear
11:15 PM 75.2 °F - 67.1 °F 76% 29.98 in 10.0 mi Calm Calm - N/A   Clear
11:35 PM 74.1 °F - 67.5 °F 80% 29.98 in 10.0 mi Calm Calm - N/A   Clear
11:55 PM 73.8 °F - 67.8 °F 82% 29.98 in 10.0 mi Calm Calm - N/A   Clear